Location: Lake Arresoe
(56.0000°N, 12.5000°E)
Time: 11:23:31
(UTC+02:00)

Cosmos 1674 - Pass Details

Date: 15 August 2020
Orbit: 495 x 517 km, 82.5° (Epoch: 23 September)

Event Time Altitude Azimuth Distance (km) Brightness Sun altitude
Rises 01:08:38 0° 351° (N) 2,602 7.8 -20.0°
Reaches altitude 10° 01:10:50 10° 358° (N) 1,716 6.6 -20.0°
Maximum altitude 01:14:26 44° 72° (ENE) 706 3.4 -20.0°
Enters shadow 01:15:18 37° 110° (ESE) 799 3.4 -20.0°
